When you browse on this site, cookies collect data to enhance your experience and personalize the content and advertising you see.
Visit our Privacy Policy to learn more. By continuing to use the site, you agree to this use of cookies and data.

Tiempo cada hora Ghanzi

Hoy, 23 Septiembre, Miércoles

Tiempo Temperatura Precipitaciones Viento Presión Humedad
00:00 +27°C° 0 mm 6 mps 716 mmHg 32%
01:00 +27°C° 0 mm 6 mps 715 mmHg 33%
02:00 +26°C° 0 mm 6 mps 715 mmHg 35%
03:00 +26°C° 0 mm 5 mps 715 mmHg 36%
04:00 +25°C° 0 mm 5 mps 716 mmHg 37%
05:00 +26°C° 0 mm 6 mps 716 mmHg 37%
06:00 +26°C° 0 mm 6 mps 716 mmHg 37%
07:00 +27°C° 0 mm 6 mps 717 mmHg 35%
08:00 +29°C° 0 mm 6 mps 717 mmHg 31%
09:00 +33°C° 0 mm 6 mps 717 mmHg 26%
10:00 +36°C° 0 mm 6 mps 718 mmHg 22%
11:00 +37°C° 0 mm 5 mps 717 mmHg 20%
12:00 +39°C° 0 mm 5 mps 716 mmHg 18%
13:00 +38°C° 0 mm 4 mps 716 mmHg 16%
14:00 +40°C° 0 mm 4 mps 716 mmHg 15%
15:00 +40°C° 0 mm 4 mps 715 mmHg 14%
16:00 +40°C° 0 mm 4 mps 715 mmHg 13%
17:00 +37°C° 0 mm 5 mps 715 mmHg 15%
18:00 +35°C° 0 mm 5 mps 715 mmHg 17%
19:00 +33°C° 0 mm 6 mps 715 mmHg 18%
20:00 +32°C° 0 mm 6 mps 715 mmHg 20%
21:00 +30°C° 0 mm 7 mps 716 mmHg 22%
22:00 +29°C° 0 mm 7 mps 716 mmHg 23%
23:00 +28°C° 0 mm 6 mps 716 mmHg 24%

Mañana, 24 Septiembre, Jueves

Tiempo Temperatura Precipitaciones Viento Presión Humedad
00:00 +27°C° 0 mm 6 mps 716 mmHg 24%
01:00 +26°C° 0 mm 5 mps 716 mmHg 24%
02:00 +26°C° 0 mm 5 mps 716 mmHg 25%
03:00 +25°C° 0 mm 5 mps 716 mmHg 26%
04:00 +25°C° 0 mm 4 mps 716 mmHg 26%
05:00 +25°C° 0 mm 5 mps 716 mmHg 27%
06:00 +26°C° 0 mm 5 mps 717 mmHg 29%
07:00 +26°C° 0 mm 5 mps 717 mmHg 30%
08:00 +29°C° 0 mm 5 mps 717 mmHg 26%
09:00 +32°C° 0 mm 5 mps 718 mmHg 23%
10:00 +35°C° 0 mm 5 mps 718 mmHg 20%
11:00 +36°C° 0 mm 5 mps 717 mmHg 18%
12:00 +37°C° 0 mm 5 mps 717 mmHg 16%
13:00 +39°C° 0 mm 5 mps 716 mmHg 13%
14:00 +39°C° 0 mm 5 mps 716 mmHg 13%
15:00 +39°C° 0 mm 6 mps 715 mmHg 13%
16:00 +39°C° 0 mm 6 mps 715 mmHg 13%
17:00 +36°C° 0 mm 6 mps 715 mmHg 15%
18:00 +34°C° 0 mm 5 mps 715 mmHg 17%
19:00 +32°C° 0 mm 5 mps 716 mmHg 19%
20:00 +30°C° 0 mm 5 mps 716 mmHg 19%
21:00 +29°C° 0 mm 5 mps 716 mmHg 20%
22:00 +28°C° 0 mm 5 mps 716 mmHg 21%
23:00 +28°C° 0 mm 5 mps 716 mmHg 22%

Pasado mañana, 25 Septiembre, Viernes

Tiempo Temperatura Precipitaciones Viento Presión Humedad
00:00 +27°C° 0 mm 5 mps 716 mmHg 23%
01:00 +26°C° 0 mm 6 mps 716 mmHg 24%
02:00 +26°C° 0 mm 5 mps 716 mmHg 26%
03:00 +25°C° 0 mm 5 mps 716 mmHg 28%
04:00 +23°C° 0 mm 5 mps 716 mmHg 29%
05:00 +25°C° 0 mm 5 mps 716 mmHg 28%
06:00 +26°C° 0 mm 5 mps 717 mmHg 27%
07:00 +26°C° 0 mm 5 mps 717 mmHg 26%
08:00 +29°C° 0 mm 6 mps 717 mmHg 23%
09:00 +32°C° 0 mm 6 mps 717 mmHg 20%
10:00 +34°C° 0 mm 6 mps 718 mmHg 17%
11:00 +36°C° 0 mm 6 mps 717 mmHg 15%
12:00 +38°C° 0 mm 6 mps 716 mmHg 13%
13:00 +39°C° 0 mm 7 mps 715 mmHg 11%
14:00 +39°C° 0 mm 7 mps 715 mmHg 11%
15:00 +39°C° 0 mm 7 mps 715 mmHg 11%
16:00 +39°C° 0 mm 7 mps 714 mmHg 11%
17:00 +36°C° 0 mm 6 mps 714 mmHg 13%
18:00 +34°C° 0 mm 5 mps 714 mmHg 15%
19:00 +32°C° 0 mm 5 mps 714 mmHg 17%
20:00 +30°C° 0 mm 4 mps 715 mmHg 19%
21:00 +30°C° 0 mm 4 mps 715 mmHg 21%
22:00 +29°C° 0 mm 4 mps 715 mmHg 22%
23:00 +28°C° 0 mm 4 mps 715 mmHg 24%

26 Septiembre, Sábado

Tiempo Temperatura Precipitaciones Viento Presión Humedad
00:00 +28°C° 0 mm 5 mps 714 mmHg 25%
01:00 +27°C° 0 mm 5 mps 714 mmHg 27%
02:00 +27°C° 0 mm 5 mps 714 mmHg 29%
03:00 +27°C° 0 mm 5 mps 714 mmHg 30%
04:00 +26°C° 0 mm 5 mps 713 mmHg 32%
05:00 +27°C° 0 mm 5 mps 714 mmHg 30%
06:00 +28°C° 0 mm 5 mps 714 mmHg 29%
07:00 +28°C° 0 mm 5 mps 715 mmHg 28%
08:00 +32°C° 0 mm 5 mps 715 mmHg 24%
09:00 +34°C° 0 mm 4 mps 715 mmHg 21%
10:00 +36°C° 0 mm 4 mps 715 mmHg 18%
11:00 +37°C° 0 mm 4 mps 715 mmHg 17%
12:00 +38°C° 0 mm 4 mps 714 mmHg 15%
13:00 +39°C° 0 mm 3 mps 713 mmHg 14%
14:00 +39°C° 0 mm 3 mps 713 mmHg 13%
15:00 +39°C° 0 mm 3 mps 712 mmHg 13%
16:00 +39°C° 0 mm 3 mps 712 mmHg 13%
17:00 +37°C° 0 mm 3 mps 712 mmHg 14%
18:00 +35°C° 0 mm 3 mps 712 mmHg 16%
19:00 +33°C° 0 mm 3 mps 712 mmHg 18%
20:00 +31°C° 0 mm 3 mps 713 mmHg 18%
21:00 +31°C° 0 mm 3 mps 713 mmHg 19%
22:00 +30°C° 0 mm 4 mps 713 mmHg 19%
23:00 +29°C° 0 mm 4 mps 713 mmHg 20%

27 Septiembre, Domingo

Tiempo Temperatura Precipitaciones Viento Presión Humedad
00:00 +29°C° 0 mm 4 mps 713 mmHg 20%
01:00 +28°C° 0 mm 4 mps 712 mmHg 21%
02:00 +27°C° 0 mm 4 mps 712 mmHg 22%
03:00 +27°C° 0 mm 4 mps 713 mmHg 22%
04:00 +27°C° 0 mm 4 mps 713 mmHg 23%
05:00 +27°C° 0 mm 4 mps 713 mmHg 22%
06:00 +28°C° 0 mm 4 mps 714 mmHg 21%
07:00 +29°C° 0 mm 4 mps 714 mmHg 20%
08:00 +31°C° 0 mm 3 mps 714 mmHg 18%
09:00 +35°C° 0 mm 3 mps 714 mmHg 16%
10:00 +37°C° 0 mm 3 mps 715 mmHg 14%
11:00 +38°C° 0 mm 2 mps 714 mmHg 13%
12:00 +39°C° 0 mm 1 mps 713 mmHg 12%
13:00 +40°C° 0 mm 1 mps 713 mmHg 11%
14:00 +40°C° 0 mm 1 mps 712 mmHg 11%
15:00 +40°C° 0 mm 1 mps 712 mmHg 11%
16:00 +40°C° 0 mm 1 mps 712 mmHg 10%
17:00 +37°C° 0 mm 1 mps 712 mmHg 12%
18:00 +36°C° 0 mm 2 mps 712 mmHg 14%
19:00 +34°C° 0 mm 2 mps 712 mmHg 15%
20:00 +34°C° 0 mm 3 mps 713 mmHg 15%
21:00 +33°C° 0 mm 3 mps 713 mmHg 16%
22:00 +33°C° 0 mm 4 mps 713 mmHg 16%
23:00 +32°C° 0 mm 4 mps 713 mmHg 16%

28 Septiembre, Lunes

Tiempo Temperatura Precipitaciones Viento Presión Humedad
00:00 +30°C° 0 mm 4 mps 713 mmHg 17%
01:00 +29°C° 0 mm 4 mps 713 mmHg 18%
02:00 +29°C° 0 mm 4 mps 713 mmHg 18%
03:00 +28°C° 0 mm 3 mps 713 mmHg 19%
04:00 +28°C° 0 mm 3 mps 713 mmHg 20%
05:00 +28°C° 0 mm 3 mps 714 mmHg 19%
06:00 +29°C° 0 mm 3 mps 714 mmHg 18%
07:00 +30°C° 0 mm 3 mps 715 mmHg 18%
08:00 +34°C° 0 mm 3 mps 715 mmHg 16%
09:00 +37°C° 0 mm 3 mps 715 mmHg 14%
10:00 +40°C° 0 mm 4 mps 716 mmHg 12%
11:00 +40°C° 0 mm 3 mps 715 mmHg 12%
12:00 +42°C° 0 mm 3 mps 714 mmHg 11%
13:00 +42°C° 0 mm 2 mps 714 mmHg 10%
14:00 +42°C° 0 mm 2 mps 713 mmHg 10%
15:00 +42°C° 0 mm 2 mps 713 mmHg 10%
16:00 +42°C° 0 mm 2 mps 713 mmHg 10%
17:00 +40°C° 0 mm 3 mps 713 mmHg 11%
18:00 +38°C° 0 mm 3 mps 713 mmHg 12%
19:00 +36°C° 0 mm 4 mps 713 mmHg 14%
20:00 +36°C° 0 mm 5 mps 714 mmHg 14%
21:00 +35°C° 0 mm 5 mps 714 mmHg 15%
22:00 +34°C° 0 mm 5 mps 714 mmHg 15%
23:00 +33°C° 0 mm 5 mps 714 mmHg 16%
Mostrar más